Regional Weather Roundup
Issued by NWS Boston, MA

Home | Current Version | Previous Version | Text Only | Print | Product List | Glossary On
Versions: 1 2 3 4 5 6 7 8 9 10 11 12 13 14 15 16 17 18 19 20 21 22 23 24 25 26 27 28 29 30 31 32 33 34 35 36 37 38 39 40 41 42 43 44 45 46 47 48 49 50
000
ASUS41 KBOX 241510
RWRBOX

REGIONAL WEATHER ROUNDUP
NATIONAL WEATHER SERVICE TAUNTON MA
1100 AM EDT THU JUL 24 2014

NOTE:  "FAIR" INDICATES FEW OR NO CLOUDS BELOW 12,000 FEET WITH NO
SIGNIFICANT WEATHER AND/OR OBSTRUCTIONS TO VISIBILITY.  THE FOLLOWING
OBSERVATION LOCATIONS DO NOT REPORT PRESENT WEATHER...PROVINCETOWN...
SMITHFIELD...BLOCK ISLAND...KEENE...AND OXFORD.

MAZALL-241600-
EASTERN MASSACHUSETTS

CITY           SKY/WX    TMP DP  RH WIND       PRES   REMARKS
BOSTON         CLOUDY    72  63  73 NE10      29.83R
BEVERLY        CLOUDY    72  63  73 NE12G18   29.83R
LAWRENCE       CLOUDY    71  64  78 NE8       29.86R
BEDFORD        CLOUDY    71  66  84 NE7       29.83R
BLUE HILL        N/A     68  64  87 NE9       29.84R
NORWOOD        LGT RAIN  71  65  81 NE6       29.83R
MARSHFIELD     CLOUDY    70  64  83 NW7       29.85R
PLYMOUTH       CLOUDY    70  62  76 N13       29.83R
TAUNTON        CLOUDY    75  67  76 VRB6      29.81R
NEW BEDFORD    CLOUDY   N/A N/A N/A N6        29.80R
$$

MAZALL-241600-
CAPE COD AND THE ISLANDS

CITY           SKY/WX    TMP DP  RH WIND       PRES   REMARKS
FALMOUTH       CLOUDY    70  66  88 N10G20    29.82R
HYANNIS        CLOUDY    73  67  81 N14       29.80S
CHATHAM        CLOUDY    73  68  84 VRB6      29.82R
PROVINCETOWN   CLOUDY    68  66  94 CALM      29.82R
NANTUCKET      CLOUDY    75  70  83 N8        29.81R
MARTHAS VNYRD  CLOUDY    75  69  81 NE10      29.80S
$$

MAZALL-241600-
CENTRAL AND WESTERN MASSACHUSETTS

CITY           SKY/WX    TMP DP  RH WIND       PRES   REMARKS
WORCESTER      PTSUNNY   71  61  70 NW8       29.87R
FITCHBURG      MOSUNNY   77  63  61 N9        29.86R
ORANGE           N/A    N/A N/A N/A MISG      29.86S
SPRINGFIELD    PTSUNNY   76  62  62 N10       29.85S
WESTFIELD      MOSUNNY   77  60  55 N10       29.85S
NORTH ADAMS    MOSUNNY   69  59  70 VRB6      29.90F
PITTSFIELD     MOSUNNY   70  57  63 N10       29.90S
$$

RIZALL-241600-
RHODE ISLAND

CITY           SKY/WX    TMP DP  RH WIND       PRES   REMARKS
PROVIDENCE     CLOUDY    78  64  61 N9        29.82R
NEWPORT        PTSUNNY   79  68  69 N8        29.81S
BLOCK ISLAND   PTSUNNY   75  68  78 N8        29.81F
SMITHFIELD     PTSUNNY   73  63  68 N9        29.85S
WESTERLY       PTSUNNY   77  67  71 N9        29.82S
$$

CTZALL-241600-
CONNECTICUT

CITY           SKY/WX    TMP DP  RH WIND       PRES   REMARKS
BRADLEY INTL   PTSUNNY   78  61  55 N9        29.84S
HARTFORD       MOSUNNY   75  62  64 N8        29.84S
BRIDGEPORT     PTSUNNY   78  63  59 N13G18    29.84S
DANBURY        CLOUDY    73  60  63 N9        29.89S
GROTON         PTSUNNY   75  66  73 N9        29.81S
NEW HAVEN      PTSUNNY   77  63  61 N8        29.84S
CHESTER        PTSUNNY   73  64  73 NW9       29.86R
MERIDEN        PTSUNNY   77  63  61 N10       29.85S
WILLIMANTIC    PTSUNNY   74  63  68 N7        29.84S
OXFORD         PTSUNNY   72  61  68 N13       29.90R
$$

MEZ002-015-021-024-NHZ003-005-008-011-012-014-VTZ005-008-241600-
NORTHERN NEW ENGLAND

CITY           SKY/WX    TMP DP  RH WIND       PRES   REMARKS
PORTLAND ME    PTSUNNY   71  62  73 N8        29.84S
BANGOR ME      PTSUNNY   70  53  54 N14       29.83F
CONCORD NH     CLOUDY    72  63  73 VRB6      29.85S
MANCHESTER NH  CLOUDY    74  61  63 N12       29.83S
NASHUA NH      CLOUDY    73  63  71 N8        29.85R
PORTSMOUTH NH  PTSUNNY   73  64  73 N13       29.83R
JAFFREY NH     MOSUNNY   72  58  61 VRB7      29.88R
KEENE NH       MOSUNNY   72  54  53 N12G17    29.88S
BURLINGTON VT  MOSUNNY   68  50  52 NW15      29.95S
MT. WASHINGTON FOG       45  45 100 NW17        N/A  VSB 1/16
$$

NYZ052-076-241600-
EASTERN NEW YORK

CITY           SKY/WX    TMP DP  RH WIND       PRES   REMARKS
ALBANY         PTSUNNY   72  58  61 N8        29.92S
NEW YORK CITY  PTSUNNY   76  62  62 N9        29.86R
$$

ANZALL-241600-
MARINE OBSERVATIONS

STATION/POSITION TIME  TEMP    WIND        PRES    VSBY  WAVE
                       AIR SEA DIR/SP/G                  HT/PER
                 (UTC) (F)     (DEG/KT/KT) (MB)    (MI)  (FT/S)
BOSTON BUOY      NOT AVBL
BUZZARDS BAY     NOT AVBL
NANTUCKET SOUND  NOT AVBL
MASS BAY-STELLWA NOT AVBL
ISLE OF SHOALS   NOT AVBL
S OF BLOCK IS    NOT AVBL
$$

......................KEY.........................
  SKY/WX - SKY CONDITION/PRESENT WEATHER
  TMP    - TEMPERATURE IN FAHRENHEIT
  DWPT   - DEWPOINT IN FAHRENHEIT
  RH     - RELATIVE HUMIDITY IN PERCENT
  WIND   - DIRECTION AND SPEED IN MPH
  PRES   - MEAN SEA LEVEL PRESSURE IN INCHES OF HG
  WCI    - WIND CHILL INDEX
  VSB    - VISIBILITY IN MILES
  HX     - HEAT INDEX
  TC     - TEMPERATURE IN CELSIUS
  VRB    - VARIABLE WIND DIRECTION
  N/A    - NOT AVAILABLE


USA.gov is the U.S. government's official web portal to all federal, state and local government web resources and services.